Time,TemperatureF,DewpointF,PressureIn,WindDirection,WindDirectionDegrees,WindSpeedMPH,WindSpeedGustMPH,Humidity,HourlyPrecipIn,Conditions,Clouds,dailyrainin,SoftwareType,DateUTC
2013-09-26 00:07:00,63.9,63.0,29.35,SW,221,0.0,0.0,96,0.00,,,0.00,weatherlink.com 1.10,2013-09-26 05:07:00,
2013-09-26 00:22:00,64.1,63.0,29.35,SW,221,0.0,0.0,96,0.00,,,0.00,weatherlink.com 1.10,2013-09-26 05:22:00,
2013-09-26 00:37:00,64.1,63.0,29.34,SW,226,0.0,0.0,96,0.00,,,0.00,weatherlink.com 1.10,2013-09-26 05:37:00,
2013-09-26 00:52:00,64.1,63.0,29.34,WSW,244,0.0,0.0,95,0.00,,,0.00,weatherlink.com 1.10,2013-09-26 05:52:00,
2013-09-26 01:07:00,64.1,63.0,29.35,NNE,22,0.0,0.0,95,0.00,,,0.00,weatherlink.com 1.10,2013-09-26 06:07:00,
2013-09-26 01:22:00,64.1,63.0,29.34,NNW,341,0.0,0.0,95,0.00,,,0.00,weatherlink.com 1.10,2013-09-26 06:22:00,
2013-09-26 01:37:00,64.0,63.0,29.34,North,355,0.0,0.0,95,0.00,,,0.00,weatherlink.com 1.10,2013-09-26 06:37:00,
2013-09-26 01:52:00,64.0,63.0,29.35,North,355,0.0,0.0,95,0.00,,,0.00,weatherlink.com 1.10,2013-09-26 06:52:00,
2013-09-26 02:07:00,64.0,63.0,29.34,North,355,0.0,0.0,95,0.00,,,0.00,weatherlink.com 1.10,2013-09-26 07:07:00,
2013-09-26 02:22:00,63.9,63.0,29.35,North,355,0.0,0.0,95,0.00,,,0.00,weatherlink.com 1.10,2013-09-26 07:22:00,
2013-09-26 02:37:00,63.9,63.0,29.35,North,355,0.0,0.0,95,0.00,,,0.00,weatherlink.com 1.10,2013-09-26 07:37:00,
2013-09-26 02:52:00,63.9,63.0,29.35,North,355,0.0,0.0,95,0.00,,,0.00,weatherlink.com 1.10,2013-09-26 07:52:00,
2013-09-26 03:07:00,63.9,63.0,29.35,North,355,0.0,0.0,95,0.00,,,0.00,weatherlink.com 1.10,2013-09-26 08:07:00,
2013-09-26 03:22:00,64.0,63.0,29.35,North,355,0.0,0.0,95,0.00,,,0.00,weatherlink.com 1.10,2013-09-26 08:22:00,
2013-09-26 03:37:00,63.9,63.0,29.35,North,355,0.0,0.0,95,0.00,,,0.00,weatherlink.com 1.10,2013-09-26 08:37:00,
2013-09-26 03:52:00,63.8,62.0,29.35,North,355,0.0,0.0,95,0.00,,,0.00,weatherlink.com 1.10,2013-09-26 08:52:00,
2013-09-26 04:07:00,63.8,62.0,29.35,North,355,0.0,0.0,95,0.00,,,0.00,weatherlink.com 1.10,2013-09-26 09:07:00,
2013-09-26 04:22:00,63.8,62.0,29.35,North,355,0.0,0.0,95,0.00,,,0.00,weatherlink.com 1.10,2013-09-26 09:22:00,
2013-09-26 04:37:00,63.8,62.0,29.36,SW,231,0.0,0.0,95,0.00,,,0.00,weatherlink.com 1.10,2013-09-26 09:37:00,
2013-09-26 04:52:00,63.8,62.0,29.36,SW,231,0.0,0.0,95,0.00,,,0.00,weatherlink.com 1.10,2013-09-26 09:52:00,
2013-09-26 05:07:00,63.8,62.0,29.37,SW,231,0.0,0.0,95,0.00,,,0.00,weatherlink.com 1.10,2013-09-26 10:07:00,
2013-09-26 05:22:00,63.7,62.0,29.37,SW,231,0.0,0.0,95,0.00,,,0.00,weatherlink.com 1.10,2013-09-26 10:22:00,
2013-09-26 05:37:00,63.5,62.0,29.38,SW,231,0.0,0.0,95,0.00,,,0.00,weatherlink.com 1.10,2013-09-26 10:37:00,
2013-09-26 05:52:00,63.5,62.0,29.38,SW,231,0.0,0.0,95,0.00,,,0.00,weatherlink.com 1.10,2013-09-26 10:52:00,
2013-09-26 06:07:00,63.5,62.0,29.39,SW,231,0.0,0.0,95,0.00,,,0.00,weatherlink.com 1.10,2013-09-26 11:07:00,
2013-09-26 06:22:00,63.4,62.0,29.39,SW,231,0.0,0.0,95,0.00,,,0.00,weatherlink.com 1.10,2013-09-26 11:22:00,
2013-09-26 06:37:00,63.3,62.0,29.40,SW,231,0.0,0.0,95,0.00,,,0.00,weatherlink.com 1.10,2013-09-26 11:37:00,
2013-09-26 06:52:00,63.2,62.0,29.41,SW,231,0.0,0.0,95,0.00,,,0.00,weatherlink.com 1.10,2013-09-26 11:52:00,
2013-09-26 07:07:00,63.2,62.0,29.41,SW,231,0.0,0.0,96,0.00,,,0.00,weatherlink.com 1.10,2013-09-26 12:07:00,
2013-09-26 07:22:00,63.3,62.0,29.42,SW,231,0.0,0.0,96,0.00,,,0.00,weatherlink.com 1.10,2013-09-26 12:22:00,
2013-09-26 07:37:00,63.5,62.0,29.43,SW,231,0.0,0.0,96,0.00,,,0.00,weatherlink.com 1.10,2013-09-26 12:37:00,
2013-09-26 07:52:00,63.7,63.0,29.43,SW,231,0.0,0.0,96,0.00,,,0.00,weatherlink.com 1.10,2013-09-26 12:52:00,
2013-09-26 08:07:00,64.1,63.0,29.44,SW,231,0.0,0.0,95,0.00,,,0.00,weatherlink.com 1.10,2013-09-26 13:07:00,
2013-09-26 08:23:00,64.5,63.0,29.44,SW,231,0.0,0.0,94,0.00,,,0.00,weatherlink.com 1.10,2013-09-26 13:23:00,
2013-09-26 08:38:00,64.9,63.0,29.44,NW,313,0.0,0.0,93,0.00,,,0.00,weatherlink.com 1.10,2013-09-26 13:38:00,
2013-09-26 08:53:00,65.4,63.0,29.45,NNW,346,0.0,1.0,92,0.00,,,0.00,weatherlink.com 1.10,2013-09-26 13:53:00,
2013-09-26 09:08:00,65.9,64.0,29.45,NW,307,0.0,1.0,93,0.00,,,0.00,weatherlink.com 1.10,2013-09-26 14:08:00,
2013-09-26 09:23:00,66.4,64.0,29.45,NW,310,0.0,2.0,92,0.00,,,0.00,weatherlink.com 1.10,2013-09-26 14:23:00,
2013-09-26 09:38:00,66.9,64.0,29.45,NW,311,0.0,3.0,91,0.00,,,0.00,weatherlink.com 1.10,2013-09-26 14:38:00,
2013-09-26 09:53:00,67.3,64.0,29.45,NNW,340,0.0,2.0,90,0.00,,,0.00,weatherlink.com 1.10,2013-09-26 14:53:00,
2013-09-26 10:08:00,67.9,65.0,29.45,NNW,338,0.0,3.0,89,0.00,,,0.00,weatherlink.com 1.10,2013-09-26 15:08:00,
2013-09-26 10:23:00,68.5,65.0,29.45,NW,324,0.0,1.0,88,0.00,,,0.00,weatherlink.com 1.10,2013-09-26 15:23:00,
2013-09-26 10:38:00,69.3,66.0,29.45,South,173,0.0,0.0,88,0.00,,,0.00,weatherlink.com 1.10,2013-09-26 15:38:00,
2013-09-26 10:53:00,70.1,65.0,29.45,NNW,327,0.0,2.0,83,0.00,,,0.00,weatherlink.com 1.10,2013-09-26 15:53:00,
2013-09-26 11:08:00,71.5,67.0,29.45,WNW,302,0.0,3.0,84,0.00,,,0.00,weatherlink.com 1.10,2013-09-26 16:08:00,
2013-09-26 11:23:00,73.0,68.0,29.44,WSW,257,0.0,3.0,83,0.00,,,0.00,weatherlink.com 1.10,2013-09-26 16:23:00,
2013-09-26 11:38:00,73.8,68.0,29.44,SSE,163,1.0,3.0,81,0.00,,,0.00,weatherlink.com 1.10,2013-09-26 16:38:00,
2013-09-26 11:53:00,74.6,67.0,29.44,NW,308,0.0,2.0,78,0.00,,,0.00,weatherlink.com 1.10,2013-09-26 16:53:00,
2013-09-26 12:08:00,75.7,69.0,29.43,SSW,209,0.0,6.0,79,0.00,,,0.00,weatherlink.com 1.10,2013-09-26 17:08:00,
2013-09-26 12:23:00,74.6,67.0,29.43,North,360,0.0,1.0,77,0.00,,,0.00,weatherlink.com 1.10,2013-09-26 17:23:00,
2013-09-26 12:38:00,73.9,68.0,29.43,North,360,0.0,0.0,81,0.00,,,0.00,weatherlink.com 1.10,2013-09-26 17:38:00,
2013-09-26 12:53:00,73.6,68.0,29.42,North,360,0.0,0.0,82,0.00,,,0.00,weatherlink.com 1.10,2013-09-26 17:53:00,
2013-09-26 13:09:00,74.2,67.0,29.42,NW,311,0.0,3.0,78,0.00,,,0.00,weatherlink.com 1.10,2013-09-26 18:09:00,
2013-09-26 13:23:00,74.1,67.0,29.42,SW,214,0.0,1.0,79,0.00,,,0.00,weatherlink.com 1.10,2013-09-26 18:23:00,
2013-09-26 13:38:00,74.8,66.0,29.41,North,10,0.0,2.0,74,0.00,,,0.00,weatherlink.com 1.10,2013-09-26 18:38:00,
2013-09-26 13:53:00,74.4,68.0,29.41,WNW,284,0.0,1.0,81,0.00,,,0.00,weatherlink.com 1.10,2013-09-26 18:53:00,
2013-09-26 14:08:00,74.5,68.0,29.41,NNW,337,0.0,1.0,81,0.00,,,0.00,weatherlink.com 1.10,2013-09-26 19:08:00,
2013-09-26 14:23:00,74.4,66.0,29.41,WNW,303,1.0,2.0,75,0.00,,,0.00,weatherlink.com 1.10,2013-09-26 19:23:00,
2013-09-26 14:38:00,75.5,68.0,29.41,SSE,148,0.0,1.0,78,0.00,,,0.00,weatherlink.com 1.10,2013-09-26 19:38:00,
2013-09-26 14:53:00,75.3,68.0,29.41,WSW,243,0.0,2.0,79,0.00,,,0.00,weatherlink.com 1.10,2013-09-26 19:53:00,
2013-09-26 15:08:00,74.4,68.0,29.41,SSW,211,0.0,1.0,81,0.00,,,0.00,weatherlink.com 1.10,2013-09-26 20:08:00,
2013-09-26 15:23:00,74.1,67.0,29.40,SSW,197,0.0,2.0,78,0.00,,,0.00,weatherlink.com 1.10,2013-09-26 20:23:00,
2013-09-26 15:38:00,74.8,68.0,29.40,South,169,0.0,4.0,80,0.00,,,0.00,weatherlink.com 1.10,2013-09-26 20:38:00,
2013-09-26 15:53:00,75.1,68.0,29.40,South,190,0.0,3.0,79,0.00,,,0.00,weatherlink.com 1.10,2013-09-26 20:53:00,
2013-09-26 16:08:00,74.8,68.0,29.40,West,261,0.0,0.0,80,0.00,,,0.00,weatherlink.com 1.10,2013-09-26 21:08:00,
2013-09-26 16:23:00,74.2,68.0,29.40,West,261,0.0,0.0,81,0.00,,,0.00,weatherlink.com 1.10,2013-09-26 21:23:00,
2013-09-26 16:38:00,73.8,69.0,29.40,West,266,0.0,0.0,84,0.00,,,0.00,weatherlink.com 1.10,2013-09-26 21:38:00,
2013-09-26 16:53:00,74.2,69.0,29.40,West,266,0.0,0.0,83,0.00,,,0.00,weatherlink.com 1.10,2013-09-26 21:53:00,
2013-09-26 17:08:00,74.0,68.0,29.40,SSW,201,0.0,1.0,82,0.00,,,0.00,weatherlink.com 1.10,2013-09-26 22:08:00,
2013-09-26 17:23:00,73.6,68.0,29.41,SSW,207,0.0,0.0,83,0.00,,,0.00,weatherlink.com 1.10,2013-09-26 22:23:00,
2013-09-26 17:38:00,72.6,68.0,29.41,SSW,207,0.0,0.0,85,0.00,,,0.00,weatherlink.com 1.10,2013-09-26 22:38:00,
2013-09-26 17:53:00,71.6,68.0,29.41,SSW,207,0.0,0.0,87,0.00,,,0.00,weatherlink.com 1.10,2013-09-26 22:53:00,
2013-09-26 18:23:00,70.3,67.0,29.41,SSW,207,0.0,0.0,89,0.00,,,0.00,weatherlink.com 1.10,2013-09-26 23:23:00,
2013-09-26 18:38:00,69.5,66.0,29.41,SSW,207,0.0,0.0,89,0.00,,,0.00,weatherlink.com 1.10,2013-09-26 23:38:00,
2013-09-26 18:53:00,68.7,66.0,29.41,SSW,207,0.0,0.0,90,0.00,,,0.00,weatherlink.com 1.10,2013-09-26 23:53:00,
2013-09-26 19:23:00,67.1,65.0,29.42,SSW,207,0.0,0.0,91,0.00,,,0.00,weatherlink.com 1.10,2013-09-27 00:23:00,
2013-09-26 19:38:00,66.5,64.0,29.43,SSW,207,0.0,0.0,92,0.00,,,0.00,weatherlink.com 1.10,2013-09-27 00:38:00,
2013-09-26 19:53:00,65.8,64.0,29.43,SSW,207,0.0,0.0,92,0.00,,,0.00,weatherlink.com 1.10,2013-09-27 00:53:00,
2013-09-26 20:08:00,65.3,63.0,29.43,SSW,207,0.0,0.0,93,0.00,,,0.00,weatherlink.com 1.10,2013-09-27 01:08:00,
2013-09-26 20:23:00,64.8,63.0,29.44,SSW,207,0.0,0.0,93,0.00,,,0.00,weatherlink.com 1.10,2013-09-27 01:23:00,
2013-09-26 20:38:00,64.4,62.0,29.45,SSW,207,0.0,0.0,93,0.00,,,0.00,weatherlink.com 1.10,2013-09-27 01:38:00,
2013-09-26 20:53:00,64.0,62.0,29.45,SSW,207,0.0,0.0,94,0.00,,,0.00,weatherlink.com 1.10,2013-09-27 01:53:00,
2013-09-26 21:08:00,63.6,62.0,29.45,SSW,207,0.0,0.0,94,0.00,,,0.00,weatherlink.com 1.10,2013-09-27 02:08:00,
2013-09-26 21:24:00,63.3,62.0,29.45,SSW,207,0.0,0.0,94,0.00,,,0.00,weatherlink.com 1.10,2013-09-27 02:24:00,
2013-09-26 21:39:00,62.9,61.0,29.46,SSW,207,0.0,0.0,94,0.00,,,0.00,weatherlink.com 1.10,2013-09-27 02:39:00,
2013-09-26 21:54:00,62.5,61.0,29.46,SSW,207,0.0,0.0,94,0.00,,,0.00,weatherlink.com 1.10,2013-09-27 02:54:00,
2013-09-26 22:09:00,62.1,60.0,29.46,SSW,207,0.0,0.0,94,0.00,,,0.00,weatherlink.com 1.10,2013-09-27 03:09:00,
2013-09-26 22:24:00,61.8,60.0,29.46,SSW,207,0.0,0.0,94,0.00,,,0.00,weatherlink.com 1.10,2013-09-27 03:24:00,
2013-09-26 22:39:00,61.4,60.0,29.47,SSW,207,0.0,0.0,94,0.00,,,0.00,weatherlink.com 1.10,2013-09-27 03:39:00,
2013-09-26 22:54:00,61.1,59.0,29.48,SSW,207,0.0,0.0,94,0.00,,,0.00,weatherlink.com 1.10,2013-09-27 03:54:00,
2013-09-26 23:09:00,60.7,59.0,29.48,SSW,207,0.0,0.0,94,0.00,,,0.00,weatherlink.com 1.10,2013-09-27 04:09:00,
2013-09-26 23:24:00,60.4,59.0,29.48,SSW,207,0.0,0.0,95,0.00,,,0.00,weatherlink.com 1.10,2013-09-27 04:24:00,
2013-09-26 23:39:00,60.2,59.0,29.48,SSW,207,0.0,0.0,95,0.00,,,0.00,weatherlink.com 1.10,2013-09-27 04:39:00,
2013-09-26 23:54:00,60.0,59.0,29.48,SSW,207,0.0,0.0,95,0.00,,,0.00,weatherlink.com 1.10,2013-09-27 04:54:00,